Location: Melbourne
(37.8120°S, 144.9677°E)
Time: 05:49:56
(UTC+10:00)

Daily predictions for brighter satellites

Satellite Brightness Start Highest point End
(mag) Time Altitude Azimuth Time Altitude Azimuth Time Altitude Azimuth
ATLAS 3B R/B 3.8 04:04:29 41° NE 04:04:29 41° NE 04:09:09 10° NE
CZ-4 R/B 4.3 04:24:06 10° E 04:25:56 13° ESE 04:26:52 12° SE
H-2A ROCKET BODY 4.1 04:42:28 12° NE 04:42:28 12° NE 04:43:54 10° ENE
Cosmos 2227 Rocket 4.3 04:48:32 15° S 04:48:32 15° S 04:49:34 10° S
Cosmos 1607 4.5 04:49:15 39° S 04:51:22 56° SE 04:57:35 10° NE
Atlas Centaur 2 3.8 04:55:27 29° NNW 04:57:52 37° NNE 05:05:13 10° E
Cosmos 1300 4.3 05:00:48 32° ESE 05:01:20 34° ESE 05:04:52 10° NE
ATLAS 2AS CENTAUR R/B 4.2 05:05:47 18° S 05:05:47 18° S 05:07:55 10° S
Cosmos 2297 Rocket 3.7 05:08:11 24° S 05:08:11 24° S 05:10:36 10° S
CSL-04 Debris 4.1 05:03:46 10° NNE 05:09:18 83° WNW 05:10:40 53° SSW
CSL-04 Rocket 3.9 05:08:45 10° N 05:13:11 53° NW 05:13:11 53° NW
YAOGAN 1 4.1 05:12:40 10° NE 05:16:39 36° ESE 05:20:42 10° S
Cosmos 468 4.4 05:19:40 55° SW 05:20:50 78° WNW 05:26:08 10° NNE
Cosmos 1707 Rocket 4.3 05:17:04 11° S 05:21:17 53° E 05:25:32 10° NNE
IRS-1A Rocket 4.3 05:17:38 10° N 05:23:33 70° WNW 05:28:18 17° SSW
Cosmos 372 Rocket 4.2 05:18:37 10° N 05:23:44 69° ENE 05:28:58 10° SSE
Cosmos 1666 Rocket 4.2 05:19:50 10° N 05:24:06 56° E 05:28:25 10° SSE
SL-16 R/B 2.2 05:26:02 51° WSW 05:27:01 59° WNW 05:32:34 10° N
S3M 4.1 05:26:42 41° SW 05:28:07 48° W 05:34:00 10° NNW
PSLV R/B 4.2 05:29:52 42° SE 05:29:52 42° SE 05:32:35 10° E
Cosmos 2266 Rocket 3.9 05:23:18 10° N 05:29:43 79° W 05:36:15 10° S
Meteor 1-4 Rocket 2.6 05:30:39 56° S 05:31:26 85° E 05:35:17 10° N
USA 238 DEB 3.8 05:29:15 35° SW 05:32:17 60° WNW 05:39:15 10° NNE
USA 238 3.8 05:29:18 34° SW 05:32:24 61° WNW 05:39:22 10° NNE
Cosmos 1048 Rocket 3.9 05:31:08 22° SSW 05:34:36 89° ESE 05:39:49 10° NNE
Meteor 2-20 Rocket 4.4 05:28:44 10° NNW 05:34:51 67° W 05:41:05 10° S
COSMOS 2455 4.4 05:38:17 18° NW 05:38:17 18° NW 05:40:32 10° NNW
CZ-4C R/B 2.0 05:36:48 31° SW 05:39:34 78° WNW 05:44:45 10° NNE
IDEFIX/ARIANE 42P 3.9 05:35:50 10° NE 05:40:41 39° ESE 05:45:37 10° S
Cosmos 1125 Rocket 3.7 05:41:18 36° WNW 05:42:49 46° WSW 05:47:55 10° S
Cosmos 1271 Rocket 2.5 05:42:58 33° SSW 05:44:36 77° W 05:48:23 10° N
PAYLOAD A 4.3 05:40:14 10° NNE 05:45:41 78° ESE 05:51:07 10° S
Abrixas rocket 2.9 05:45:19 43° S 05:45:55 49° SSE 05:49:12 10° ENE
Thor Agena Rocket 3.7 05:41:01 10° S 05:46:02 47° WSW 05:50:55 10° NW
Cosmos 2315 Rocket 4.1 05:41:56 10° S 05:48:23 85° E 05:54:41 10° N
ATLAS 3B R/B 4.0 05:51:49 22° WNW 05:51:49 22° WNW 05:57:08 10° NNW
Cosmos 1633 Rocket 3.0 05:50:45 10° N 05:55:12 77° W 05:59:44 10° S
Cosmos 1703 3.2 05:52:46 10° N 05:56:46 88° E 06:00:48 10° S
Cosmos 2058 3.5 05:56:35 34° W 05:56:53 34° WSW 06:00:45 10° SSW
Cosmos 158 Rocket 4.2 05:52:00 10° SSW 05:57:22 78° ESE 06:02:46 10° NNE
Cosmos 2227 4.2 05:51:48 10° NW 05:57:25 59° WSW 06:03:05 10° SSE
CENTAUR R/B 4.4 05:53:13 10° S 05:57:50 21° SE 06:02:11 10° E
SMAP 3.0 05:54:14 10° NNE 05:58:55 85° W 06:03:40 10° SSW
Cosmos 1726 2.3 05:57:07 25° SSW 05:59:00 49° W 06:02:39 10° NNW
CZ-4 R/B 1.6 05:56:46 10° N 06:00:35 44° W 06:02:57 21° SW
RESURS DK-1 2.5 05:57:02 10° NNW 06:01:11 79° ENE 06:05:25 10° SSE
Cosmos 1603 3.6 05:59:51 10° SSW 06:05:31 76° WNW 06:11:07 10° NNE
NOSS 3-2 (C) 3.5 06:00:10 10° SSW 06:06:45 84° ESE 06:12:48 10° NNE
NOSS 3-2 (A) 3.4 06:02:54 12° SW 06:09:02 76° WNW 06:15:02 10° NNE
SL-14 R/B 4.1 06:08:32 10° NW 06:11:57 29° WSW 06:15:24 10° SSW
NAVSTAR 52 R/B(PAM-D 3.0 06:12:39 56° WSW 06:12:59 77° S 06:15:24 10° E
USA 116 4.3 06:12:51 10° S 06:15:59 27° WSW 06:18:50 10° NW
FALCON 9 R/B 3.5 06:14:44 17° W 06:19:02 68° N 06:37:48 10° ENE
Aureole 2 Rocket 4.0 06:21:45 14° WNW 06:21:45 14° WNW 06:22:46 10° NW
Cosmos 1862 Rocket 3.9 06:20:51 10° S 06:25:23 73° E 06:29:48 10° NNE
NOSS 3-4 (A) 4.2 06:19:10 10° NW 06:26:39 51° SW 06:34:05 10° SSE
Cosmos 1461 3.3 06:22:47 10° NNW 06:26:42 64° ENE 06:30:46 10° SE
NOSS 3-4 (C) 4.2 06:19:19 10° NW 06:26:49 51° SW 06:34:14 10° SSE
BREEZE-M DEB (TANK) 4.3 06:21:29 12° WSW 06:28:22 29° S 06:31:26 10° ESE
CZ-2C R/B 2.5 06:23:51 10° N 06:28:50 60° W 06:33:44 10° SSW
Cosmos 1867 4.2 06:30:27 10° SW 06:35:15 35° WNW 06:40:05 10° N
ATLAS 5 CENTAUR R/B 3.8 06:30:51 10° SSW 06:35:15 26° SE 06:39:22 10° E
Cosmos 921 Rocket 3.2 06:31:40 10° N 06:36:04 78° ENE 06:40:26 10° SSE
ISS 0.2 06:35:08 10° NNE 06:36:19 12° NE 06:37:30 10° ENE
Cosmos 1300 4.5 06:35:55 13° WSW 06:36:42 13° W 06:38:37 10° WNW
Helios 1B rocket 4.1 06:33:43 10° SSE 06:37:39 39° E 06:41:32 10° NNE
Cosmos 2251 Rocket 3.7 06:36:40 10° SSW 06:42:00 60° WNW 06:47:18 10° N
Cosmos 1933 4.4 06:40:35 10° S 06:44:35 50° E 06:48:32 10° NNE
Cosmos 1484 Rocket 2.7 06:41:09 10° NNE 06:44:56 87° WNW 06:48:51 10° SSW
Sich 1 4.4 06:43:11 10° WNW 06:46:24 19° WSW 06:49:41 10° SSW
Atlas Centaur 2 3.7 06:39:39 10° WNW 06:47:04 51° N 06:55:18 10° ENE
Cosmos 1745 Rocket 4.1 06:42:43 10° NNW 06:49:05 73° W 06:55:32 10° S
YAOGAN 1 4.1 06:49:53 10° NW 06:52:52 18° W 06:55:52 10° SW
Cosmos 1455 2.8 06:51:12 10° SSW 06:54:46 36° W 06:58:15 10° NNW
Cosmos 1869 3.5 06:51:11 10° SSW 06:55:09 51° W 06:59:04 10° N
COSMO-SKYMED 1 2.9 06:51:13 10° S 06:55:28 47° WSW 06:59:39 10° NNW
GEOS 3 Rocket 3.8 06:51:41 10° SSE 06:56:57 60° SW 07:02:10 10° NW
USA 215 3.4 06:51:48 10° NE 06:58:21 81° NW 07:04:59 10° SW
